Time,TemperatureF,DewpointF,PressureIn,WindDirection,WindDirectionDegrees,WindSpeedMPH,WindSpeedGustMPH,Humidity,HourlyPrecipIn,Conditions,Clouds,dailyrainin,SoftwareType,DateUTC
2013-02-02 00:09:00,50.9,17.2,25.15,South,191,2.0,-999.0,26,-99.99,,,-99.99,dwt +perl,2013-02-02 08:09:00,
2013-02-02 00:14:00,50.7,17.1,25.15,South,191,1.0,-999.0,26,-99.99,,,-99.99,dwt +perl,2013-02-02 08:14:00,
2013-02-02 00:19:00,50.6,17.0,25.15,South,191,3.0,-999.0,26,-99.99,,,-99.99,dwt +perl,2013-02-02 08:19:00,
2013-02-02 00:24:00,50.7,17.1,25.15,South,185,2.0,-999.0,26,-99.99,,,-99.99,dwt +perl,2013-02-02 08:24:00,
2013-02-02 00:29:00,50.6,17.9,25.15,South,184,3.0,-999.0,27,-99.99,,,-99.99,dwt +perl,2013-02-02 08:29:00,
2013-02-02 00:34:00,50.3,18.5,25.15,South,184,4.0,-999.0,28,-99.99,,,-99.99,dwt +perl,2013-02-02 08:34:00,
2013-02-02 00:39:00,50.0,18.2,25.15,South,184,4.0,-999.0,28,-99.99,,,-99.99,dwt +perl,2013-02-02 08:39:00,
2013-02-02 00:44:00,49.9,17.3,25.15,South,185,5.0,-999.0,27,-99.99,,,-99.99,dwt +perl,2013-02-02 08:44:00,
2013-02-02 00:49:00,50.0,17.4,25.15,South,185,5.0,-999.0,27,-99.99,,,-99.99,dwt +perl,2013-02-02 08:49:00,
2013-02-02 00:54:00,50.1,16.6,25.15,South,188,1.0,-999.0,26,-99.99,,,-99.99,dwt +perl,2013-02-02 08:54:00,
2013-02-02 00:59:00,50.3,16.7,25.15,South,188,4.0,-999.0,26,-99.99,,,-99.99,dwt +perl,2013-02-02 08:59:00,
2013-02-02 01:04:00,50.3,16.7,25.15,South,188,3.0,-999.0,26,-99.99,,,-99.99,dwt +perl,2013-02-02 09:04:00,
2013-02-02 01:09:00,50.4,15.9,25.15,South,181,4.0,-999.0,25,-99.99,,,-99.99,dwt +perl,2013-02-02 09:09:00,
2013-02-02 01:14:00,50.6,16.1,25.15,South,173,4.0,-999.0,25,-99.99,,,-99.99,dwt +perl,2013-02-02 09:14:00,
2013-02-02 01:19:00,50.8,15.3,25.15,South,171,4.0,-999.0,24,-99.99,,,-99.99,dwt +perl,2013-02-02 09:19:00,
2013-02-02 01:24:00,50.7,16.2,25.15,South,173,5.0,-999.0,25,-99.99,,,-99.99,dwt +perl,2013-02-02 09:24:00,
2013-02-02 01:29:00,50.7,16.2,25.15,South,173,3.0,-999.0,25,-99.99,,,-99.99,dwt +perl,2013-02-02 09:29:00,
2013-02-02 01:34:00,50.7,16.2,25.15,South,173,5.0,-999.0,25,-99.99,,,-99.99,dwt +perl,2013-02-02 09:34:00,
2013-02-02 01:39:00,50.7,16.2,25.15,South,173,3.0,-999.0,25,-99.99,,,-99.99,dwt +perl,2013-02-02 09:39:00,
2013-02-02 01:44:00,50.7,16.2,25.15,South,174,4.0,-999.0,25,-99.99,,,-99.99,dwt +perl,2013-02-02 09:44:00,
2013-02-02 01:49:00,50.9,15.4,25.15,South,173,2.0,-999.0,24,-99.99,,,-99.99,dwt +perl,2013-02-02 09:49:00,
2013-02-02 01:54:00,50.9,15.4,25.15,South,173,2.0,-999.0,24,-99.99,,,-99.99,dwt +perl,2013-02-02 09:54:00,
2013-02-02 01:59:00,50.7,16.2,25.15,South,174,7.0,-999.0,25,-99.99,,,-99.99,dwt +perl,2013-02-02 09:59:00,
2013-02-02 02:04:00,50.5,16.0,25.15,SSW,198,6.0,-999.0,25,-99.99,,,-99.99,dwt +perl,2013-02-02 10:04:00,
2013-02-02 02:09:00,50.4,16.8,25.15,SSW,200,7.0,-999.0,26,-99.99,,,-99.99,dwt +perl,2013-02-02 10:09:00,
2013-02-02 02:14:00,50.3,16.7,25.16,SSW,201,7.0,-999.0,26,-99.99,,,-99.99,dwt +perl,2013-02-02 10:14:00,
2013-02-02 02:19:00,50.3,16.7,25.16,SSW,201,7.0,-999.0,26,-99.99,,,-99.99,dwt +perl,2013-02-02 10:19:00,
2013-02-02 02:24:00,50.1,16.6,25.16,SSW,206,9.0,-999.0,26,-99.99,,,-99.99,dwt +perl,2013-02-02 10:24:00,
2013-02-02 02:29:00,49.8,18.0,25.16,SSW,203,8.0,-999.0,28,-99.99,,,-99.99,dwt +perl,2013-02-02 10:29:00,
2013-02-02 02:34:00,49.5,18.6,25.16,SW,214,8.0,-999.0,29,-99.99,,,-99.99,dwt +perl,2013-02-02 10:34:00,
2013-02-02 02:39:00,49.5,18.6,25.16,SSW,213,5.0,-999.0,29,-99.99,,,-99.99,dwt +perl,2013-02-02 10:39:00,
2013-02-02 02:44:00,49.2,18.3,25.16,SW,220,5.0,-999.0,29,-99.99,,,-99.99,dwt +perl,2013-02-02 10:44:00,
2013-02-02 02:49:00,49.3,18.4,25.15,SW,226,6.0,-999.0,29,-99.99,,,-99.99,dwt +perl,2013-02-02 10:49:00,
2013-02-02 02:54:00,49.3,18.4,25.15,SW,226,5.0,-999.0,29,-99.99,,,-99.99,dwt +perl,2013-02-02 10:54:00,
2013-02-02 02:59:00,49.4,17.7,25.16,SW,226,4.0,-999.0,28,-99.99,,,-99.99,dwt +perl,2013-02-02 10:59:00,
2013-02-02 03:04:00,49.7,17.1,25.15,SW,226,6.0,-999.0,27,-99.99,,,-99.99,dwt +perl,2013-02-02 11:04:00,
2013-02-02 03:09:00,50.3,16.7,25.15,SSW,207,5.0,-999.0,26,-99.99,,,-99.99,dwt +perl,2013-02-02 11:09:00,
2013-02-02 03:14:00,50.6,16.1,25.15,SSW,204,5.0,-999.0,25,-99.99,,,-99.99,dwt +perl,2013-02-02 11:14:00,
2013-02-02 03:19:00,50.8,16.3,25.15,SSW,202,7.0,-999.0,25,-99.99,,,-99.99,dwt +perl,2013-02-02 11:19:00,
2013-02-02 03:24:00,50.9,16.4,25.15,SSW,202,6.0,-999.0,25,-99.99,,,-99.99,dwt +perl,2013-02-02 11:24:00,
2013-02-02 03:29:00,51.0,16.4,25.15,SSW,202,6.0,-999.0,25,-99.99,,,-99.99,dwt +perl,2013-02-02 11:29:00,
2013-02-02 03:34:00,50.9,16.4,25.15,SSW,202,6.0,-999.0,25,-99.99,,,-99.99,dwt +perl,2013-02-02 11:34:00,
2013-02-02 03:39:00,50.8,16.3,25.15,SSW,202,4.0,-999.0,25,-99.99,,,-99.99,dwt +perl,2013-02-02 11:39:00,
2013-02-02 03:44:00,50.5,16.0,25.16,SSW,202,5.0,-999.0,25,-99.99,,,-99.99,dwt +perl,2013-02-02 11:44:00,
2013-02-02 03:49:00,50.4,16.8,25.15,SSW,202,4.0,-999.0,26,-99.99,,,-99.99,dwt +perl,2013-02-02 11:49:00,
2013-02-02 03:54:00,50.6,16.1,25.15,SSW,203,4.0,-999.0,25,-99.99,,,-99.99,dwt +perl,2013-02-02 11:54:00,
2013-02-02 03:59:00,50.6,16.1,25.15,SSW,202,6.0,-999.0,25,-99.99,,,-99.99,dwt +perl,2013-02-02 11:59:00,
2013-02-02 04:04:00,50.5,16.9,25.15,SSW,202,5.0,-999.0,26,-99.99,,,-99.99,dwt +perl,2013-02-02 12:04:00,
2013-02-02 04:09:00,50.6,16.1,25.15,SSW,208,7.0,-999.0,25,-99.99,,,-99.99,dwt +perl,2013-02-02 12:09:00,
2013-02-02 04:14:00,50.6,16.1,25.15,SSW,209,7.0,-999.0,25,-99.99,,,-99.99,dwt +perl,2013-02-02 12:14:00,
2013-02-02 04:19:00,50.7,16.2,25.15,SW,218,4.0,-999.0,25,-99.99,,,-99.99,dwt +perl,2013-02-02 12:19:00,
2013-02-02 04:24:00,50.8,16.3,25.15,SSW,208,3.0,-999.0,25,-99.99,,,-99.99,dwt +perl,2013-02-02 12:24:00,
2013-02-02 04:29:00,50.8,16.3,25.15,SSW,204,6.0,-999.0,25,-99.99,,,-99.99,dwt +perl,2013-02-02 12:29:00,
2013-02-02 04:34:00,50.6,16.1,25.15,SSW,203,7.0,-999.0,25,-99.99,,,-99.99,dwt +perl,2013-02-02 12:34:00,
2013-02-02 04:39:00,50.5,16.0,25.15,SSW,203,6.0,-999.0,25,-99.99,,,-99.99,dwt +perl,2013-02-02 12:39:00,
2013-02-02 04:44:00,50.4,16.8,25.15,SSW,203,5.0,-999.0,26,-99.99,,,-99.99,dwt +perl,2013-02-02 12:44:00,
2013-02-02 04:49:00,50.3,15.8,25.15,SSW,202,3.0,-999.0,25,-99.99,,,-99.99,dwt +perl,2013-02-02 12:49:00,
2013-02-02 04:54:00,50.4,16.8,25.15,SSW,199,3.0,-999.0,26,-99.99,,,-99.99,dwt +perl,2013-02-02 12:54:00,
2013-02-02 04:59:00,50.5,16.0,25.15,South,184,4.0,-999.0,25,-99.99,,,-99.99,dwt +perl,2013-02-02 12:59:00,
2013-02-02 05:04:00,50.6,16.1,25.15,South,185,5.0,-999.0,25,-99.99,,,-99.99,dwt +perl,2013-02-02 13:04:00,
2013-02-02 05:09:00,50.4,16.8,25.15,South,191,7.0,-999.0,26,-99.99,,,-99.99,dwt +perl,2013-02-02 13:09:00,
2013-02-02 05:14:00,50.3,16.7,25.15,South,184,4.0,-999.0,26,-99.99,,,-99.99,dwt +perl,2013-02-02 13:14:00,
2013-02-02 05:19:00,50.1,16.6,25.15,SSW,195,7.0,-999.0,26,-99.99,,,-99.99,dwt +perl,2013-02-02 13:19:00,
2013-02-02 05:24:00,50.0,16.5,25.15,SSW,198,5.0,-999.0,26,-99.99,,,-99.99,dwt +perl,2013-02-02 13:24:00,
2013-02-02 05:29:00,50.2,15.8,25.15,SSW,199,5.0,-999.0,25,-99.99,,,-99.99,dwt +perl,2013-02-02 13:29:00,
2013-02-02 05:34:00,50.5,15.1,25.15,SSW,198,7.0,-999.0,24,-99.99,,,-99.99,dwt +perl,2013-02-02 13:34:00,
2013-02-02 05:39:00,50.7,15.2,25.15,SSW,195,6.0,-999.0,24,-99.99,,,-99.99,dwt +perl,2013-02-02 13:39:00,
2013-02-02 05:44:00,50.7,13.3,25.15,SSW,197,7.0,-999.0,22,-99.99,,,-99.99,dwt +perl,2013-02-02 13:44:00,
2013-02-02 05:49:00,50.7,15.2,25.15,South,187,6.0,-999.0,24,-99.99,,,-99.99,dwt +perl,2013-02-02 13:49:00,
2013-02-02 05:54:00,50.7,15.2,25.15,SSW,202,8.0,-999.0,24,-99.99,,,-99.99,dwt +perl,2013-02-02 13:54:00,
2013-02-02 05:59:00,50.7,16.2,25.15,SSW,199,7.0,-999.0,25,-99.99,,,-99.99,dwt +perl,2013-02-02 13:59:00,
2013-02-02 06:04:00,50.7,15.2,25.15,SSW,205,7.0,-999.0,24,-99.99,,,-99.99,dwt +perl,2013-02-02 14:04:00,
2013-02-02 06:09:00,50.6,16.1,25.15,SSW,208,6.0,-999.0,25,-99.99,,,-99.99,dwt +perl,2013-02-02 14:09:00,
2013-02-02 06:14:00,50.5,16.0,25.16,SSW,201,7.0,-999.0,25,-99.99,,,-99.99,dwt +perl,2013-02-02 14:14:00,
2013-02-02 06:19:00,50.5,16.0,25.16,SSW,201,7.0,-999.0,25,-99.99,,,-99.99,dwt +perl,2013-02-02 14:19:00,
2013-02-02 06:24:00,50.5,16.0,25.16,SSW,203,6.0,-999.0,25,-99.99,,,-99.99,dwt +perl,2013-02-02 14:24:00,
2013-02-02 06:29:00,50.5,16.0,25.16,SSW,202,7.0,-999.0,25,-99.99,,,-99.99,dwt +perl,2013-02-02 14:29:00,
2013-02-02 06:34:00,50.5,16.0,25.16,SSW,200,7.0,-999.0,25,-99.99,,,-99.99,dwt +perl,2013-02-02 14:34:00,
2013-02-02 06:39:00,50.4,16.8,25.16,SSW,199,7.0,-999.0,26,-99.99,,,-99.99,dwt +perl,2013-02-02 14:39:00,
2013-02-02 06:44:00,50.1,16.6,25.16,SSW,204,7.0,-999.0,26,-99.99,,,-99.99,dwt +perl,2013-02-02 14:44:00,
2013-02-02 06:49:00,50.2,16.6,25.16,SSW,201,7.0,-999.0,26,-99.99,,,-99.99,dwt +perl,2013-02-02 14:49:00,
2013-02-02 06:54:00,50.4,15.9,25.17,SSW,201,7.0,-999.0,25,-99.99,,,-99.99,dwt +perl,2013-02-02 14:54:00,
2013-02-02 06:59:00,50.3,15.8,25.17,SSW,202,5.0,-999.0,25,-99.99,,,-99.99,dwt +perl,2013-02-02 14:59:00,
2013-02-02 07:04:00,50.5,14.1,25.17,SSW,204,3.0,-999.0,23,-99.99,,,-99.99,dwt +perl,2013-02-02 15:04:00,
2013-02-02 07:14:00,51.0,14.5,25.17,SSW,199,5.0,-999.0,23,-99.99,,,-99.99,dwt +perl,2013-02-02 15:14:00,
2013-02-02 07:19:00,51.1,15.6,25.17,SSW,197,8.0,-999.0,24,-99.99,,,-99.99,dwt +perl,2013-02-02 15:19:00,
2013-02-02 07:24:00,51.1,16.5,25.17,SW,216,5.0,-999.0,25,-99.99,,,-99.99,dwt +perl,2013-02-02 15:24:00,
2013-02-02 07:29:00,50.8,16.3,25.18,SW,219,5.0,-999.0,25,-99.99,,,-99.99,dwt +perl,2013-02-02 15:29:00,
2013-02-02 07:34:00,50.5,16.9,25.18,SW,230,4.0,-999.0,26,-99.99,,,-99.99,dwt +perl,2013-02-02 15:34:00,
2013-02-02 07:39:00,50.2,17.5,25.18,West,259,4.0,-999.0,27,-99.99,,,-99.99,dwt +perl,2013-02-02 15:39:00,
2013-02-02 07:44:00,49.9,18.1,25.18,SW,223,4.0,-999.0,28,-99.99,,,-99.99,dwt +perl,2013-02-02 15:44:00,
2013-02-02 07:49:00,49.6,17.9,25.18,SW,222,7.0,-999.0,28,-99.99,,,-99.99,dwt +perl,2013-02-02 15:49:00,
2013-02-02 07:54:00,49.5,17.8,25.18,SSW,208,6.0,-999.0,28,-99.99,,,-99.99,dwt +perl,2013-02-02 15:54:00,
2013-02-02 07:59:00,49.6,17.9,25.18,SSW,208,8.0,-999.0,28,-99.99,,,-99.99,dwt +perl,2013-02-02 15:59:00,
2013-02-02 08:04:00,49.9,18.1,25.18,SSW,204,11.0,-999.0,28,-99.99,,,-99.99,dwt +perl,2013-02-02 16:04:00,
2013-02-02 08:09:00,50.0,18.2,25.18,SSW,204,8.0,-999.0,28,-99.99,,,-99.99,dwt +perl,2013-02-02 16:09:00,
2013-02-02 08:14:00,49.9,18.1,25.18,SSW,204,10.0,-999.0,28,-99.99,,,-99.99,dwt +perl,2013-02-02 16:14:00,
2013-02-02 08:19:00,49.9,18.1,25.18,SSW,209,7.0,-999.0,28,-99.99,,,-99.99,dwt +perl,2013-02-02 16:19:00,
2013-02-02 08:24:00,50.0,18.2,25.18,SSW,211,7.0,-999.0,28,-99.99,,,-99.99,dwt +perl,2013-02-02 16:24:00,
2013-02-02 08:29:00,50.0,18.2,25.18,SSW,204,5.0,-999.0,28,-99.99,,,-99.99,dwt +perl,2013-02-02 16:29:00,
2013-02-02 08:34:00,50.0,18.2,25.19,SSW,207,4.0,-999.0,28,-99.99,,,-99.99,dwt +perl,2013-02-02 16:34:00,
2013-02-02 08:39:00,50.1,18.3,25.19,SW,214,6.0,-999.0,28,-99.99,,,-99.99,dwt +perl,2013-02-02 16:39:00,
2013-02-02 08:44:00,50.2,18.4,25.19,SW,216,8.0,-999.0,28,-99.99,,,-99.99,dwt +perl,2013-02-02 16:44:00,
2013-02-02 08:49:00,50.3,18.5,25.19,SSW,211,7.0,-999.0,28,-99.99,,,-99.99,dwt +perl,2013-02-02 16:49:00,
2013-02-02 08:54:00,50.5,18.6,25.19,SW,215,5.0,-999.0,28,-99.99,,,-99.99,dwt +perl,2013-02-02 16:54:00,
2013-02-02 08:59:00,50.6,19.5,25.19,SSW,210,10.0,-999.0,29,-99.99,,,-99.99,dwt +perl,2013-02-02 16:59:00,
2013-02-02 09:04:00,50.7,19.6,25.19,SSW,205,8.0,-999.0,29,-99.99,,,-99.99,dwt +perl,2013-02-02 17:04:00,
2013-02-02 09:09:00,50.8,18.9,25.19,SW,221,10.0,-999.0,28,-99.99,,,-99.99,dwt +perl,2013-02-02 17:09:00,
2013-02-02 09:19:00,50.8,20.5,25.19,SSW,194,7.0,-999.0,30,-99.99,,,-99.99,dwt +perl,2013-02-02 17:19:00,
2013-02-02 09:24:00,50.9,20.6,25.19,SSW,207,10.0,-999.0,30,-99.99,,,-99.99,dwt +perl,2013-02-02 17:24:00,
2013-02-02 09:29:00,51.1,20.8,25.19,SW,218,10.0,-999.0,30,-99.99,,,-99.99,dwt +perl,2013-02-02 17:29:00,
2013-02-02 09:34:00,51.2,20.8,25.19,SW,216,7.0,-999.0,30,-99.99,,,-99.99,dwt +perl,2013-02-02 17:34:00,
2013-02-02 09:39:00,51.4,21.8,25.19,SW,214,7.0,-999.0,31,-99.99,,,-99.99,dwt +perl,2013-02-02 17:39:00,
2013-02-02 09:44:00,51.5,21.1,25.19,SW,215,8.0,-999.0,30,-99.99,,,-99.99,dwt +perl,2013-02-02 17:44:00,
2013-02-02 09:49:00,51.8,20.6,25.19,SW,219,7.0,-999.0,29,-99.99,,,-99.99,dwt +perl,2013-02-02 17:49:00,
2013-02-02 09:54:00,52.3,20.2,25.19,SW,214,4.0,-999.0,28,-99.99,,,-99.99,dwt +perl,2013-02-02 17:54:00,
2013-02-02 09:59:00,52.8,19.8,25.19,SSW,211,7.0,-999.0,27,-99.99,,,-99.99,dwt +perl,2013-02-02 17:59:00,
2013-02-02 10:04:00,53.2,20.1,25.19,SSW,212,7.0,-999.0,27,-99.99,,,-99.99,dwt +perl,2013-02-02 18:04:00,
2013-02-02 10:09:00,53.4,20.3,25.19,SSW,209,6.0,-999.0,27,-99.99,,,-99.99,dwt +perl,2013-02-02 18:09:00,
2013-02-02 10:14:00,53.6,19.6,25.20,SW,214,5.0,-999.0,26,-99.99,,,-99.99,dwt +perl,2013-02-02 18:14:00,
2013-02-02 10:19:00,53.8,18.8,25.20,SSW,208,7.0,-999.0,25,-99.99,,,-99.99,dwt +perl,2013-02-02 18:19:00,
2013-02-02 10:24:00,53.9,20.7,25.20,SSW,205,7.0,-999.0,27,-99.99,,,-99.99,dwt +perl,2013-02-02 18:24:00,
2013-02-02 10:29:00,54.0,21.6,25.20,SSW,203,7.0,-999.0,28,-99.99,,,-99.99,dwt +perl,2013-02-02 18:29:00,
2013-02-02 10:34:00,54.1,20.9,25.20,SW,218,5.0,-999.0,27,-99.99,,,-99.99,dwt +perl,2013-02-02 18:34:00,
2013-02-02 10:39:00,54.3,21.9,25.20,SSW,207,7.0,-999.0,28,-99.99,,,-99.99,dwt +perl,2013-02-02 18:39:00,
2013-02-02 10:44:00,54.5,21.2,25.20,SW,226,9.0,-999.0,27,-99.99,,,-99.99,dwt +perl,2013-02-02 18:44:00,
2013-02-02 10:49:00,54.8,22.3,25.20,SW,214,8.0,-999.0,28,-99.99,,,-99.99,dwt +perl,2013-02-02 18:49:00,
2013-02-02 10:54:00,54.3,21.9,25.20,SSW,207,7.0,-999.0,28,-99.99,,,-99.99,dwt +perl,2013-02-02 18:54:00,
2013-02-02 10:59:00,53.8,21.5,25.19,SW,214,6.0,-999.0,28,-99.99,,,-99.99,dwt +perl,2013-02-02 18:59:00,
2013-02-02 11:04:00,53.5,20.4,25.19,SW,229,6.0,-999.0,27,-99.99,,,-99.99,dwt +perl,2013-02-02 19:04:00,
2013-02-02 11:09:00,53.4,22.0,25.19,SW,231,3.0,-999.0,29,-99.99,,,-99.99,dwt +perl,2013-02-02 19:09:00,
2013-02-02 11:14:00,53.3,22.7,25.19,SW,221,4.0,-999.0,30,-99.99,,,-99.99,dwt +perl,2013-02-02 19:14:00,
2013-02-02 11:19:00,53.1,22.5,25.19,WSW,239,3.0,-999.0,30,-99.99,,,-99.99,dwt +perl,2013-02-02 19:19:00,
2013-02-02 11:24:00,53.0,21.6,25.19,SSW,211,1.0,-999.0,29,-99.99,,,-99.99,dwt +perl,2013-02-02 19:24:00,
2013-02-02 11:29:00,52.8,23.0,25.19,SW,228,6.0,-999.0,31,-99.99,,,-99.99,dwt +perl,2013-02-02 19:29:00,
2013-02-02 11:34:00,52.6,22.8,25.19,SW,224,2.0,-999.0,31,-99.99,,,-99.99,dwt +perl,2013-02-02 19:34:00,
2013-02-02 11:39:00,52.5,23.5,25.19,SW,216,8.0,-999.0,32,-99.99,,,-99.99,dwt +perl,2013-02-02 19:39:00,
2013-02-02 11:44:00,52.4,24.9,25.19,SW,218,5.0,-999.0,34,-99.99,,,-99.99,dwt +perl,2013-02-02 19:44:00,
2013-02-02 11:49:00,52.2,28.0,25.19,SW,214,2.0,-999.0,39,-99.99,,,-99.99,dwt +perl,2013-02-02 19:49:00,
2013-02-02 11:54:00,51.9,24.4,25.19,SW,214,5.0,-999.0,34,-99.99,,,-99.99,dwt +perl,2013-02-02 19:54:00,
2013-02-02 11:59:00,51.8,25.0,25.19,SSW,212,5.0,-999.0,35,-99.99,,,-99.99,dwt +perl,2013-02-02 19:59:00,
2013-02-02 12:04:00,51.7,22.8,25.19,SW,222,3.0,-999.0,32,-99.99,,,-99.99,dwt +perl,2013-02-02 20:04:00,
2013-02-02 12:09:00,51.4,21.8,25.19,SSW,210,7.0,-999.0,31,-99.99,,,-99.99,dwt +perl,2013-02-02 20:09:00,
2013-02-02 12:14:00,51.0,22.2,25.19,SSW,207,8.0,-999.0,32,-99.99,,,-99.99,dwt +perl,2013-02-02 20:14:00,
2013-02-02 12:19:00,50.5,23.9,25.19,SW,228,8.0,-999.0,35,-99.99,,,-99.99,dwt +perl,2013-02-02 20:19:00,
2013-02-02 12:24:00,50.1,24.9,25.18,SW,231,9.0,-999.0,37,-99.99,,,-99.99,dwt +perl,2013-02-02 20:24:00,
2013-02-02 12:29:00,49.9,25.3,25.18,SW,221,6.0,-999.0,38,-99.99,,,-99.99,dwt +perl,2013-02-02 20:29:00,
2013-02-02 12:34:00,49.9,22.7,25.17,South,186,6.0,-999.0,34,-99.99,,,-99.99,dwt +perl,2013-02-02 20:34:00,
2013-02-02 12:39:00,50.8,21.3,25.18,South,179,4.0,-999.0,31,-99.99,,,-99.99,dwt +perl,2013-02-02 20:39:00,
2013-02-02 12:44:00,51.7,22.8,25.18,SSW,193,5.0,-999.0,32,-99.99,,,-99.99,dwt +perl,2013-02-02 20:44:00,
2013-02-02 12:49:00,52.2,21.7,25.17,SSW,193,3.0,-999.0,30,-99.99,,,-99.99,dwt +perl,2013-02-02 20:49:00,
2013-02-02 12:54:00,52.4,22.7,25.17,SSW,197,4.0,-999.0,31,-99.99,,,-99.99,dwt +perl,2013-02-02 20:54:00,
2013-02-02 12:59:00,52.3,24.1,25.17,SSW,197,3.0,-999.0,33,-99.99,,,-99.99,dwt +perl,2013-02-02 20:59:00,
2013-02-02 13:04:00,52.4,24.1,25.17,SSW,208,3.0,-999.0,33,-99.99,,,-99.99,dwt +perl,2013-02-02 21:04:00,
2013-02-02 13:09:00,52.4,24.9,25.17,SSW,207,1.0,-999.0,34,-99.99,,,-99.99,dwt +perl,2013-02-02 21:09:00,
2013-02-02 13:14:00,52.5,27.0,25.17,SW,214,3.0,-999.0,37,-99.99,,,-99.99,dwt +perl,2013-02-02 21:14:00,
2013-02-02 13:19:00,52.6,25.7,25.17,SSW,210,1.0,-999.0,35,-99.99,,,-99.99,dwt +perl,2013-02-02 21:19:00,
2013-02-02 13:24:00,52.7,27.8,25.17,SSW,210,2.0,-999.0,38,-99.99,,,-99.99,dwt +perl,2013-02-02 21:24:00,
2013-02-02 13:29:00,52.5,27.0,25.17,SSW,210,2.0,-999.0,37,-99.99,,,-99.99,dwt +perl,2013-02-02 21:29:00,
2013-02-02 13:34:00,52.5,26.3,25.17,SW,214,5.0,-999.0,36,-99.99,,,-99.99,dwt +perl,2013-02-02 21:34:00,
2013-02-02 13:39:00,52.4,24.9,25.17,SW,214,5.0,-999.0,34,-99.99,,,-99.99,dwt +perl,2013-02-02 21:39:00,
2013-02-02 13:44:00,52.5,24.2,25.17,SW,214,3.0,-999.0,33,-99.99,,,-99.99,dwt +perl,2013-02-02 21:44:00,
2013-02-02 13:49:00,52.7,24.4,25.16,SSW,208,2.0,-999.0,33,-99.99,,,-99.99,dwt +perl,2013-02-02 21:49:00,
2013-02-02 13:54:00,52.9,26.0,25.16,SSW,208,2.0,-999.0,35,-99.99,,,-99.99,dwt +perl,2013-02-02 21:54:00,
2013-02-02 13:59:00,53.1,26.2,25.17,SSW,208,1.0,-999.0,35,-99.99,,,-99.99,dwt +perl,2013-02-02 21:59:00,
2013-02-02 14:04:00,53.0,28.7,25.17,SSW,208,4.0,-999.0,39,-99.99,,,-99.99,dwt +perl,2013-02-02 22:04:00,
2013-02-02 14:09:00,52.8,29.1,25.17,SSW,207,5.0,-999.0,40,-99.99,,,-99.99,dwt +perl,2013-02-02 22:09:00,
2013-02-02 14:14:00,52.5,27.0,25.17,SSW,203,2.0,-999.0,37,-99.99,,,-99.99,dwt +perl,2013-02-02 22:14:00,
2013-02-02 14:19:00,52.4,28.2,25.16,SSW,203,2.0,-999.0,39,-99.99,,,-99.99,dwt +perl,2013-02-02 22:19:00,
2013-02-02 14:24:00,52.4,26.9,25.16,SSW,203,1.0,-999.0,37,-99.99,,,-99.99,dwt +perl,2013-02-02 22:24:00,
2013-02-02 14:29:00,52.4,25.6,25.16,SW,223,5.0,-999.0,35,-99.99,,,-99.99,dwt +perl,2013-02-02 22:29:00,
2013-02-02 14:34:00,52.2,23.2,25.16,SW,236,7.0,-999.0,32,-99.99,,,-99.99,dwt +perl,2013-02-02 22:34:00,
2013-02-02 14:39:00,51.9,24.4,25.16,SW,231,7.0,-999.0,34,-99.99,,,-99.99,dwt +perl,2013-02-02 22:39:00,
2013-02-02 14:44:00,51.9,23.0,25.16,SW,231,6.0,-999.0,32,-99.99,,,-99.99,dwt +perl,2013-02-02 22:44:00,
2013-02-02 14:49:00,51.8,23.6,25.16,SW,232,7.0,-999.0,33,-99.99,,,-99.99,dwt +perl,2013-02-02 22:49:00,
2013-02-02 14:54:00,51.8,25.0,25.16,SW,222,4.0,-999.0,35,-99.99,,,-99.99,dwt +perl,2013-02-02 22:54:00,
2013-02-02 14:59:00,51.8,23.6,25.16,SW,216,4.0,-999.0,33,-99.99,,,-99.99,dwt +perl,2013-02-02 22:59:00,
2013-02-02 15:04:00,51.8,22.9,25.17,SW,216,1.0,-999.0,32,-99.99,,,-99.99,dwt +perl,2013-02-02 23:04:00,
2013-02-02 15:09:00,51.8,23.6,25.16,SW,221,3.0,-999.0,33,-99.99,,,-99.99,dwt +perl,2013-02-02 23:09:00,
2013-02-02 15:14:00,51.8,23.6,25.17,SW,222,2.0,-999.0,33,-99.99,,,-99.99,dwt +perl,2013-02-02 23:14:00,
2013-02-02 15:19:00,51.7,23.5,25.17,SSW,210,7.0,-999.0,33,-99.99,,,-99.99,dwt +perl,2013-02-02 23:19:00,
2013-02-02 15:24:00,51.5,23.4,25.17,SW,214,4.0,-999.0,33,-99.99,,,-99.99,dwt +perl,2013-02-02 23:24:00,
2013-02-02 15:29:00,51.4,22.5,25.17,SW,216,7.0,-999.0,32,-99.99,,,-99.99,dwt +perl,2013-02-02 23:29:00,
2013-02-02 15:34:00,51.3,22.5,25.17,WSW,238,3.0,-999.0,32,-99.99,,,-99.99,dwt +perl,2013-02-02 23:34:00,
2013-02-02 15:39:00,51.3,23.9,25.17,SW,231,3.0,-999.0,34,-99.99,,,-99.99,dwt +perl,2013-02-02 23:39:00,
2013-02-02 15:44:00,51.3,22.5,25.17,SW,228,4.0,-999.0,32,-99.99,,,-99.99,dwt +perl,2013-02-02 23:44:00,
2013-02-02 15:49:00,51.3,23.2,25.17,SW,216,4.0,-999.0,33,-99.99,,,-99.99,dwt +perl,2013-02-02 23:49:00,
2013-02-02 15:54:00,51.2,22.4,25.17,SW,219,5.0,-999.0,32,-99.99,,,-99.99,dwt +perl,2013-02-02 23:54:00,
2013-02-02 15:59:00,51.1,23.0,25.17,WSW,241,7.0,-999.0,33,-99.99,,,-99.99,dwt +perl,2013-02-02 23:59:00,
2013-02-02 16:04:00,51.0,22.9,25.18,SW,235,9.0,-999.0,33,-99.99,,,-99.99,dwt +perl,2013-02-03 00:04:00,
2013-02-02 16:09:00,51.0,22.2,25.18,SW,231,7.0,-999.0,32,-99.99,,,-99.99,dwt +perl,2013-02-03 00:09:00,
2013-02-02 16:14:00,50.9,22.1,25.17,WSW,243,8.0,-999.0,32,-99.99,,,-99.99,dwt +perl,2013-02-03 00:14:00,
2013-02-02 16:19:00,50.6,23.3,25.18,WSW,240,11.0,-999.0,34,-99.99,,,-99.99,dwt +perl,2013-02-03 00:19:00,
2013-02-02 16:24:00,50.7,21.2,25.18,SW,233,10.0,-999.0,31,-99.99,,,-99.99,dwt +perl,2013-02-03 00:24:00,
2013-02-02 16:29:00,50.9,20.6,25.18,WSW,241,11.0,-999.0,30,-99.99,,,-99.99,dwt +perl,2013-02-03 00:29:00,
2013-02-02 16:34:00,50.9,20.6,25.18,WSW,245,9.0,-999.0,30,-99.99,,,-99.99,dwt +perl,2013-02-03 00:34:00,
2013-02-02 16:39:00,50.7,21.2,25.18,WSW,243,10.0,-999.0,31,-99.99,,,-99.99,dwt +perl,2013-02-03 00:39:00,
2013-02-02 16:44:00,50.6,21.8,25.18,WSW,241,10.0,-999.0,32,-99.99,,,-99.99,dwt +perl,2013-02-03 00:44:00,
2013-02-02 16:49:00,50.7,21.9,25.18,WSW,245,8.0,-999.0,32,-99.99,,,-99.99,dwt +perl,2013-02-03 00:49:00,
2013-02-02 16:54:00,50.7,21.9,25.18,WSW,250,8.0,-999.0,32,-99.99,,,-99.99,dwt +perl,2013-02-03 00:54:00,
2013-02-02 16:59:00,50.7,21.2,25.18,WSW,258,6.0,-999.0,31,-99.99,,,-99.99,dwt +perl,2013-02-03 00:59:00,
2013-02-02 17:04:00,50.8,20.5,25.18,WSW,254,5.0,-999.0,30,-99.99,,,-99.99,dwt +perl,2013-02-03 01:04:00,
2013-02-02 17:09:00,51.1,20.8,25.18,WSW,249,6.0,-999.0,30,-99.99,,,-99.99,dwt +perl,2013-02-03 01:09:00,
2013-02-02 17:14:00,51.3,20.1,25.18,WSW,253,5.0,-999.0,29,-99.99,,,-99.99,dwt +perl,2013-02-03 01:14:00,
2013-02-02 17:19:00,51.6,20.4,25.18,WSW,258,5.0,-999.0,29,-99.99,,,-99.99,dwt +perl,2013-02-03 01:19:00,
2013-02-02 17:24:00,51.9,21.5,25.18,WSW,253,3.0,-999.0,30,-99.99,,,-99.99,dwt +perl,2013-02-03 01:24:00,
2013-02-02 17:29:00,51.9,20.6,25.18,WNW,284,5.0,-999.0,29,-99.99,,,-99.99,dwt +perl,2013-02-03 01:29:00,
2013-02-02 17:34:00,51.8,20.6,25.18,WNW,285,2.0,-999.0,29,-99.99,,,-99.99,dwt +perl,2013-02-03 01:34:00,
2013-02-02 17:39:00,51.6,21.2,25.18,West,260,3.0,-999.0,30,-99.99,,,-99.99,dwt +perl,2013-02-03 01:39:00,
2013-02-02 17:44:00,51.5,20.3,25.18,West,271,4.0,-999.0,29,-99.99,,,-99.99,dwt +perl,2013-02-03 01:44:00,
2013-02-02 17:49:00,51.4,20.2,25.17,WNW,293,4.0,-999.0,29,-99.99,,,-99.99,dwt +perl,2013-02-03 01:49:00,
2013-02-02 17:54:00,51.4,19.4,25.17,WNW,296,4.0,-999.0,28,-99.99,,,-99.99,dwt +perl,2013-02-03 01:54:00,
2013-02-02 17:59:00,51.4,20.2,25.18,West,280,1.0,-999.0,29,-99.99,,,-99.99,dwt +perl,2013-02-03 01:59:00,
2013-02-02 18:04:00,51.2,20.0,25.18,West,280,0.0,-999.0,29,-99.99,,,-99.99,dwt +perl,2013-02-03 02:04:00,
2013-02-02 18:09:00,50.7,26.6,25.18,ENE,60,3.0,-999.0,39,-99.99,,,-99.99,dwt +perl,2013-02-03 02:09:00,
2013-02-02 18:14:00,50.1,22.1,25.18,ENE,60,0.0,-999.0,33,-99.99,,,-99.99,dwt +perl,2013-02-03 02:14:00,
2013-02-02 18:19:00,50.3,19.3,25.18,ENE,60,1.0,-999.0,29,-99.99,,,-99.99,dwt +perl,2013-02-03 02:19:00,
2013-02-02 18:24:00,50.9,19.0,25.18,ENE,59,1.0,-999.0,28,-99.99,,,-99.99,dwt +perl,2013-02-03 02:24:00,
2013-02-02 18:29:00,51.3,18.5,25.18,ENE,59,0.0,-999.0,27,-99.99,,,-99.99,dwt +perl,2013-02-03 02:29:00,
2013-02-02 18:34:00,51.5,19.5,25.18,ENE,58,0.0,-999.0,28,-99.99,,,-99.99,dwt +perl,2013-02-03 02:34:00,
2013-02-02 18:39:00,51.6,18.7,25.18,NE,42,1.0,-999.0,27,-99.99,,,-99.99,dwt +perl,2013-02-03 02:39:00,
2013-02-02 18:44:00,51.7,18.8,25.18,NE,42,0.0,-999.0,27,-99.99,,,-99.99,dwt +perl,2013-02-03 02:44:00,
2013-02-02 18:49:00,51.7,18.8,25.18,NE,41,2.0,-999.0,27,-99.99,,,-99.99,dwt +perl,2013-02-03 02:49:00,
2013-02-02 18:54:00,51.8,19.7,25.18,NE,39,0.0,-999.0,28,-99.99,,,-99.99,dwt +perl,2013-02-03 02:54:00,
2013-02-02 18:59:00,52.0,19.1,25.18,NE,39,0.0,-999.0,27,-99.99,,,-99.99,dwt +perl,2013-02-03 02:59:00,
2013-02-02 19:04:00,52.0,19.9,25.18,NE,39,1.0,-999.0,28,-99.99,,,-99.99,dwt +perl,2013-02-03 03:04:00,
2013-02-02 19:09:00,52.0,20.7,25.18,NE,39,0.0,-999.0,29,-99.99,,,-99.99,dwt +perl,2013-02-03 03:09:00,
2013-02-02 19:14:00,52.0,21.5,25.18,NE,37,1.0,-999.0,30,-99.99,,,-99.99,dwt +perl,2013-02-03 03:14:00,
2013-02-02 19:19:00,52.0,21.5,25.18,NE,36,1.0,-999.0,30,-99.99,,,-99.99,dwt +perl,2013-02-03 03:19:00,
2013-02-02 19:24:00,51.9,21.5,25.18,NE,36,0.0,-999.0,30,-99.99,,,-99.99,dwt +perl,2013-02-03 03:24:00,
2013-02-02 19:29:00,51.9,22.2,25.18,NNE,33,1.0,-999.0,31,-99.99,,,-99.99,dwt +perl,2013-02-03 03:29:00,
2013-02-02 19:34:00,52.1,23.1,25.18,North,354,2.0,-999.0,32,-99.99,,,-99.99,dwt +perl,2013-02-03 03:34:00,
2013-02-02 19:39:00,52.1,23.1,25.18,NW,322,3.0,-999.0,32,-99.99,,,-99.99,dwt +perl,2013-02-03 03:39:00,
2013-02-02 19:44:00,52.1,23.1,25.18,NW,320,4.0,-999.0,32,-99.99,,,-99.99,dwt +perl,2013-02-03 03:44:00,
2013-02-02 19:49:00,52.2,24.0,25.18,NW,317,4.0,-999.0,33,-99.99,,,-99.99,dwt +perl,2013-02-03 03:49:00,
2013-02-02 19:54:00,52.4,25.6,25.18,NW,318,3.0,-999.0,35,-99.99,,,-99.99,dwt +perl,2013-02-03 03:54:00,
2013-02-02 19:59:00,52.5,25.6,25.18,NW,318,3.0,-999.0,35,-99.99,,,-99.99,dwt +perl,2013-02-03 03:59:00,
2013-02-02 20:04:00,52.5,25.6,25.18,NW,312,6.0,-999.0,35,-99.99,,,-99.99,dwt +perl,2013-02-03 04:04:00,
2013-02-02 20:09:00,52.4,24.9,25.18,NW,305,6.0,-999.0,34,-99.99,,,-99.99,dwt +perl,2013-02-03 04:09:00,
2013-02-02 20:14:00,52.3,24.8,25.18,WNW,303,7.0,-999.0,34,-99.99,,,-99.99,dwt +perl,2013-02-03 04:14:00,
2013-02-02 20:19:00,52.3,24.8,25.18,NW,304,5.0,-999.0,34,-99.99,,,-99.99,dwt +perl,2013-02-03 04:19:00,
2013-02-02 20:24:00,52.3,24.1,25.18,WNW,303,4.0,-999.0,33,-99.99,,,-99.99,dwt +perl,2013-02-03 04:24:00,
2013-02-02 20:29:00,52.1,23.1,25.18,WNW,299,4.0,-999.0,32,-99.99,,,-99.99,dwt +perl,2013-02-03 04:29:00,
2013-02-02 20:34:00,52.1,23.9,25.18,WNW,301,5.0,-999.0,33,-99.99,,,-99.99,dwt +perl,2013-02-03 04:34:00,
2013-02-02 20:39:00,52.1,23.1,25.18,WNW,301,7.0,-999.0,32,-99.99,,,-99.99,dwt +perl,2013-02-03 04:39:00,
2013-02-02 20:44:00,52.1,23.1,25.18,WNW,297,6.0,-999.0,32,-99.99,,,-99.99,dwt +perl,2013-02-03 04:44:00,
2013-02-02 20:49:00,52.0,23.1,25.18,WNW,295,4.0,-999.0,32,-99.99,,,-99.99,dwt +perl,2013-02-03 04:49:00,
2013-02-02 20:54:00,51.8,22.9,25.18,WNW,285,2.0,-999.0,32,-99.99,,,-99.99,dwt +perl,2013-02-03 04:54:00,
2013-02-02 20:59:00,51.6,22.0,25.18,WNW,282,4.0,-999.0,31,-99.99,,,-99.99,dwt +perl,2013-02-03 04:59:00,
2013-02-02 21:04:00,51.5,21.9,25.18,WNW,284,5.0,-999.0,31,-99.99,,,-99.99,dwt +perl,2013-02-03 05:04:00,
2013-02-02 21:09:00,51.5,21.1,25.18,West,276,6.0,-999.0,30,-99.99,,,-99.99,dwt +perl,2013-02-03 05:09:00,
2013-02-02 21:14:00,51.4,21.8,25.18,West,270,7.0,-999.0,31,-99.99,,,-99.99,dwt +perl,2013-02-03 05:14:00,
2013-02-02 21:19:00,51.5,22.6,25.18,West,272,6.0,-999.0,32,-99.99,,,-99.99,dwt +perl,2013-02-03 05:19:00,
2013-02-02 21:24:00,51.5,22.6,25.18,West,271,6.0,-999.0,32,-99.99,,,-99.99,dwt +perl,2013-02-03 05:24:00,
2013-02-02 21:29:00,51.5,23.4,25.18,West,271,7.0,-999.0,33,-99.99,,,-99.99,dwt +perl,2013-02-03 05:29:00,
2013-02-02 21:34:00,51.5,23.4,25.18,West,273,8.0,-999.0,33,-99.99,,,-99.99,dwt +perl,2013-02-03 05:34:00,
2013-02-02 21:39:00,51.4,23.3,25.18,West,272,8.0,-999.0,33,-99.99,,,-99.99,dwt +perl,2013-02-03 05:39:00,
2013-02-02 21:44:00,51.4,23.3,25.18,West,273,7.0,-999.0,33,-99.99,,,-99.99,dwt +perl,2013-02-03 05:44:00,
2013-02-02 21:49:00,51.4,23.3,25.18,West,275,4.0,-999.0,33,-99.99,,,-99.99,dwt +perl,2013-02-03 05:49:00,
2013-02-02 21:54:00,51.4,23.3,25.18,West,279,5.0,-999.0,33,-99.99,,,-99.99,dwt +perl,2013-02-03 05:54:00,
2013-02-02 21:59:00,51.3,22.5,25.18,WNW,290,7.0,-999.0,32,-99.99,,,-99.99,dwt +perl,2013-02-03 05:59:00,
2013-02-02 22:04:00,51.2,22.4,25.18,WNW,297,5.0,-999.0,32,-99.99,,,-99.99,dwt +perl,2013-02-03 06:04:00,
2013-02-02 22:09:00,51.1,22.3,25.18,WNW,291,2.0,-999.0,32,-99.99,,,-99.99,dwt +perl,2013-02-03 06:09:00,
2013-02-02 22:14:00,51.0,22.2,25.18,WNW,283,4.0,-999.0,32,-99.99,,,-99.99,dwt +perl,2013-02-03 06:14:00,
2013-02-02 22:19:00,50.8,22.0,25.18,WNW,283,3.0,-999.0,32,-99.99,,,-99.99,dwt +perl,2013-02-03 06:19:00,
2013-02-02 22:24:00,50.7,21.9,25.18,West,276,6.0,-999.0,32,-99.99,,,-99.99,dwt +perl,2013-02-03 06:24:00,
2013-02-02 22:29:00,50.5,21.8,25.17,West,274,3.0,-999.0,32,-99.99,,,-99.99,dwt +perl,2013-02-03 06:29:00,
2013-02-02 22:34:00,50.5,22.5,25.17,West,269,4.0,-999.0,33,-99.99,,,-99.99,dwt +perl,2013-02-03 06:34:00,
2013-02-02 22:39:00,50.5,22.5,25.17,West,266,3.0,-999.0,33,-99.99,,,-99.99,dwt +perl,2013-02-03 06:39:00,
2013-02-02 22:44:00,50.6,22.6,25.17,West,262,4.0,-999.0,33,-99.99,,,-99.99,dwt +perl,2013-02-03 06:44:00,
2013-02-02 22:49:00,50.6,22.6,25.17,WSW,258,5.0,-999.0,33,-99.99,,,-99.99,dwt +perl,2013-02-03 06:49:00,
2013-02-02 22:54:00,50.5,23.2,25.17,WSW,251,5.0,-999.0,34,-99.99,,,-99.99,dwt +perl,2013-02-03 06:54:00,
2013-02-02 22:59:00,50.5,23.2,25.17,WSW,251,6.0,-999.0,34,-99.99,,,-99.99,dwt +perl,2013-02-03 06:59:00,
2013-02-02 23:04:00,50.5,23.2,25.17,WSW,249,6.0,-999.0,34,-99.99,,,-99.99,dwt +perl,2013-02-03 07:04:00,
2013-02-02 23:09:00,50.3,23.0,25.17,WSW,254,6.0,-999.0,34,-99.99,,,-99.99,dwt +perl,2013-02-03 07:09:00,
2013-02-02 23:14:00,50.1,22.8,25.17,WSW,256,5.0,-999.0,34,-99.99,,,-99.99,dwt +perl,2013-02-03 07:14:00,
2013-02-02 23:19:00,50.3,23.0,25.17,WSW,256,5.0,-999.0,34,-99.99,,,-99.99,dwt +perl,2013-02-03 07:19:00,
2013-02-02 23:24:00,50.3,23.0,25.17,WSW,258,4.0,-999.0,34,-99.99,,,-99.99,dwt +perl,2013-02-03 07:24:00,
2013-02-02 23:29:00,50.0,22.8,25.17,West,260,4.0,-999.0,34,-99.99,,,-99.99,dwt +perl,2013-02-03 07:29:00,
2013-02-02 23:34:00,49.9,22.7,25.17,West,259,5.0,-999.0,34,-99.99,,,-99.99,dwt +perl,2013-02-03 07:34:00,
2013-02-02 23:39:00,49.7,22.5,25.16,West,259,3.0,-999.0,34,-99.99,,,-99.99,dwt +perl,2013-02-03 07:39:00,
2013-02-02 23:44:00,49.5,22.3,25.16,WSW,251,7.0,-999.0,34,-99.99,,,-99.99,dwt +perl,2013-02-03 07:44:00,
2013-02-02 23:49:00,49.4,22.2,25.16,WSW,249,4.0,-999.0,34,-99.99,,,-99.99,dwt +perl,2013-02-03 07:49:00,
2013-02-02 23:54:00,49.3,22.1,25.16,WSW,249,8.0,-999.0,34,-99.99,,,-99.99,dwt +perl,2013-02-03 07:54:00,
2013-02-02 23:59:00,49.4,22.2,25.16,WSW,249,6.0,-999.0,34,-99.99,,,-99.99,dwt +perl,2013-02-03 07:59:00,